Notices

What's New in latest Release from April 7th, 2021:

- Updated Glossary, including Speed of Maximum Gust, and Total Hourly Precipitation

- Updated national and regional climate services offices contacts and prices information

- Addition of station inventory lists for 1981-2010, 1971-2000, and 1961-1990 Normals.

If you haven't already, please take our survey and provide feedback about our website: https://eccc.sondage-survey.ca/f/LanguageSelection.aspx?s=442ca660-fcf1-47c0-95a9-59707d6fd709

Hourly Data Report for July 11, 2020

TORONTO CITY
ONTARIO
Current Station Operator: ECCC - MSC

43°40'00.000" N
79°24'00.000" W
112.50 m
6158355
71508
XTO

Download Data

Hourly Data (July 2020)
Hourly Data Report for July 11, 2020
TIME
LST
Temp Definition
°C
Dew Point Definition
°C
Rel Hum Definition
%
Precip. Amount Definition
mm

Wind Dir Definition
10's deg

Wind Spd Definition
km/h
Visibility Definition
km
Stn Press Definition
kPa
Hmdx Definition


Wind Chill Definition


Weather Definition


00:00 23.1 19.1 78 0.0       99.15 30   LegendNANA
01:00 23.6 18.7 74 0.0       99.08 30   LegendNANA
02:00 23.9 19.0 74 0.0       99.04 31   LegendNANA
03:00 23.6 18.9 75 0.0       99.01 30   LegendNANA
04:00 23.2 19.6 80 0.0       99.02 30   LegendNANA
05:00 23.0 19.3 80 0.0       99.00 30   LegendNANA
06:00 23.2 19.3 79 0.0       98.97 30   LegendNANA
07:00 23.7 19.4 77 0.0       98.97 31   LegendNANA
08:00 23.4 19.4 78 0.0       98.96 30   LegendNANA
09:00 23.6 20.2 82 0.0       98.99 31   LegendNANA
10:00 23.2 19.8 81 0.7       98.98 31   LegendNANA
11:00 24.9 20.3 76 0.0       98.93 33   LegendNANA
12:00 27.8 20.4 64 0.0       98.88 36   LegendNANA
13:00 26.7 17.8 58 0.0       98.87 33   LegendNANA
14:00 24.8 17.7 65 0.0       98.91 31   LegendNANA
15:00 23.4 19.8 80 1.6       98.92 31   LegendNANA
16:00 23.5 18.5 73 0.3       98.94 30   LegendNANA
17:00 22.2 19.1 83 1.2       98.99 29   LegendNANA
18:00 22.8 18.7 78 1.1       98.96 29   LegendNANA
19:00 23.5 18.9 75 0.0       98.98 30   LegendNANA
20:00 23.6 17.6 69 0.0       99.05 29   LegendNANA
21:00 23.9 17.1 66 0.0       99.08 29   LegendNANA
22:00 23.1 15.9 64 0.0       99.11 28   LegendNANA
23:00 22.4 15.5 65 0.0       99.14 27   LegendNANA

Notes on Data Quality.

Legend

  • E = Estimated
  • M = Missing
  • NA = Not Available*
  • [empty] = Indicates an unobserved value
Date modified: